Regional Weather Roundup
Issued by NWS

Home | Current Version | Previous Version | Text Only | Print | Product List | Glossary Off
Versions: 1 2 3 4 5 6 7 8 9 10 11 12 13 14 15 16 17 18 19 20 21 22 23 24 25 26 27 28 29 30 31 32 33 34 35 36 37 38 39 40 41 42 43 44 45 46 47 48 49 50

000
ASUS43 KLMK 200810
RWRKY
KENTUCKY REGIONAL WEATHER ROUNDUP
NATIONAL WEATHER SERVICE LOUISVILLE KY
400 AM EDT SUN MAY 20 2018

NOTE "FAIR" INDICATES FEW OR NO CLOUDS BELOW 12,000 FEET
WITH NO SIGNIFICANT WEATHER AND/OR OBSTRUCTIONS TO VISIBILITY.

KYZ001>023-026-027-061>063-070>075-200900-
WESTERN AND SOUTH CENTRAL KENTUCKY

CITY           SKY/WX    TMP DP  RH WIND       PRES   REMARKS
PADUCAH        FAIR      66  63  90 SE7       29.99F
HENDERSON      NOT AVBL
OWENSBORO      FAIR      68  64  87 SE9       29.99F
HOPKINSVILLE   FAIR      66  66 100 SE8       30.06F
BOWLING GREEN  FAIR      71  65  81 SW5       30.08F
GLASGOW        FAIR      68  64  85 CALM      30.10R
$$

KYZ024-025-028>034-038-045-046-053-200900-
NORTH CENTRAL KENTUCKY

CITY           SKY/WX    TMP DP  RH WIND       PRES   REMARKS
LOUISVILLE/SDF CLOUDY    70  66  87 S5        30.03S
LOUISVILLE/LOU FAIR      69  67  93 S3        30.04S
FORT KNOX      CLOUDY    69  67  94 SW6       30.05F
$$

KYZ035>037-039>044-047>052-055>060-089>105-200900-
NORTHEAST KENTUCKY

CITY           SKY/WX    TMP DP  RH WIND       PRES   REMARKS
LEXINGTON      FAIR      68  66  93 SW8       30.07R
COVINGTON      MOCLDY    68  64  87 SW5       30.02R
FRANKFORT      FAIR      66  63  90 SW7       30.05R
$$

KYZ054-064>069-076>088-106>120-200900-
SOUTHEAST KENTUCKY

CITY           SKY/WX    TMP DP  RH WIND       PRES   REMARKS
JACKSON        FAIR      65  63  93 CALM      30.08R
LONDON         FAIR      64  64 100 CALM      30.10R
SOMERSET       FAIR      64  64 100 CALM      30.11R FOG
MIDDLESBORO    MOCLDY    64  64 100 CALM      30.12R
MONTICELLO     FAIR      66  65  96 W9        30.11R FOG
$$





USA.gov is the U.S. government's official web portal to all federal, state and local government web resources and services.